TimePST,TemperatureF,Dew PointF,Humidity,Sea Level PressureIn,VisibilityMPH,Wind Direction,Wind SpeedMPH,Gust SpeedMPH,PrecipitationIn,Events,Conditions,WindDirDegrees,DateUTC
12:15 AM,37.4,37.4,100,30.29,0.2,SSE,3.5,-,N/A,,Overcast,160,2013-01-20 08:15:00
12:35 AM,37.4,37.4,100,30.29,0.2,Calm,Calm,-,N/A,,Overcast,0,2013-01-20 08:35:00
12:55 AM,35.6,35.6,100,30.29,0.8,South,5.8,-,N/A,,Overcast,170,2013-01-20 08:55:00
1:15 AM,35.6,35.6,100,30.29,0.2,Calm,Calm,-,N/A,,Overcast,0,2013-01-20 09:15:00
1:35 AM,35.6,35.6,100,30.29,0.2,Calm,Calm,-,N/A,,Overcast,0,2013-01-20 09:35:00
1:55 AM,35.6,35.6,100,30.29,0.2,Calm,Calm,-,N/A,,Overcast,0,2013-01-20 09:55:00
2:15 AM,35.6,35.6,100,30.29,0.2,SSE,3.5,-,N/A,,Overcast,160,2013-01-20 10:15:00
2:35 AM,35.6,35.6,100,30.29,0.2,Calm,Calm,-,N/A,,Overcast,0,2013-01-20 10:35:00
2:55 AM,35.6,35.6,100,30.29,0.2,Calm,Calm,-,N/A,,Overcast,0,2013-01-20 10:55:00
3:15 AM,35.6,35.6,100,30.29,0.2,Calm,Calm,-,N/A,,Overcast,0,2013-01-20 11:15:00
3:35 AM,35.6,35.6,100,30.28,0.2,Calm,Calm,-,N/A,,Overcast,0,2013-01-20 11:35:00
3:55 AM,35.6,35.6,100,30.28,0.2,Calm,Calm,-,N/A,,Overcast,0,2013-01-20 11:55:00
4:15 AM,35.6,35.6,100,30.28,0.2,Calm,Calm,-,N/A,,Overcast,0,2013-01-20 12:15:00
4:35 AM,33.8,33.8,100,30.28,0.2,Calm,Calm,-,N/A,,Overcast,0,2013-01-20 12:35:00
5:15 AM,33.8,33.8,100,30.27,0.2,Calm,Calm,-,N/A,,Overcast,0,2013-01-20 13:15:00
5:35 AM,33.8,33.8,100,30.27,0.2,SSE,4.6,-,N/A,,Overcast,160,2013-01-20 13:35:00
5:55 AM,32.0,32.0,100,30.27,0.2,Calm,Calm,-,N/A,,Overcast,0,2013-01-20 13:55:00
6:15 AM,32.0,32.0,100,30.27,0.2,SSE,3.5,-,N/A,,Overcast,160,2013-01-20 14:15:00
6:35 AM,32.0,32.0,100,30.27,0.2,Calm,Calm,-,N/A,,Overcast,0,2013-01-20 14:35:00
6:55 AM,32.0,32.0,100,30.27,0.2,Calm,Calm,-,N/A,,Overcast,0,2013-01-20 14:55:00
7:15 AM,32.0,32.0,100,30.27,0.2,SSE,3.5,-,N/A,,Overcast,150,2013-01-20 15:15:00
7:35 AM,32.0,32.0,100,30.27,0.2,ESE,5.8,-,N/A,,Overcast,120,2013-01-20 15:35:00
7:55 AM,32.0,32.0,100,30.27,0.2,ESE,5.8,-,N/A,,Overcast,110,2013-01-20 15:55:00
8:15 AM,32.0,32.0,100,30.27,0.2,SE,5.8,-,N/A,,Overcast,140,2013-01-20 16:15:00
8:35 AM,32.0,32.0,100,30.27,0.2,ESE,5.8,-,N/A,,Overcast,120,2013-01-20 16:35:00
8:55 AM,32.0,32.0,100,30.28,0.2,ESE,4.6,-,N/A,,Overcast,120,2013-01-20 16:55:00
9:15 AM,32.0,32.0,100,30.28,7.0,ESE,3.5,-,N/A,,Mostly Cloudy,120,2013-01-20 17:15:00
9:35 AM,33.8,33.8,100,30.28,10.0,East,4.6,-,N/A,,Partly Cloudy,100,2013-01-20 17:35:00
10:15 AM,35.6,35.6,100,30.29,10.0,Calm,Calm,-,N/A,,Clear,0,2013-01-20 18:15:00
10:35 AM,37.4,37.4,100,30.29,10.0,Calm,Calm,-,N/A,,Clear,0,2013-01-20 18:35:00
10:55 AM,39.2,37.4,93,30.28,10.0,Calm,Calm,-,N/A,,Clear,0,2013-01-20 18:55:00
11:15 AM,39.2,39.2,100,30.28,10.0,Calm,Calm,-,N/A,,Clear,0,2013-01-20 19:15:00
11:35 AM,42.8,41.0,93,30.27,10.0,Calm,Calm,-,N/A,,Clear,0,2013-01-20 19:35:00
11:55 AM,42.8,41.0,93,30.26,10.0,Calm,Calm,-,N/A,,Clear,0,2013-01-20 19:55:00
12:15 PM,44.6,39.2,81,30.25,10.0,Calm,Calm,-,N/A,,Clear,0,2013-01-20 20:15:00
12:35 PM,46.4,39.2,76,30.25,10.0,Calm,Calm,-,N/A,,Clear,0,2013-01-20 20:35:00
1:15 PM,48.2,41.0,76,30.23,8.0,West,3.5,-,N/A,,Clear,280,2013-01-20 21:15:00
1:35 PM,50.0,44.6,82,30.22,5.0,West,3.5,-,N/A,,Clear,270,2013-01-20 21:35:00
1:55 PM,50.0,42.8,76,30.22,7.0,West,5.8,-,N/A,,Clear,270,2013-01-20 21:55:00
2:15 PM,50.0,42.8,76,30.21,7.0,West,4.6,-,N/A,,Clear,270,2013-01-20 22:15:00
2:35 PM,50.0,42.8,76,30.21,9.0,WSW,5.8,-,N/A,,Clear,250,2013-01-20 22:35:00
2:55 PM,50.0,44.6,82,30.21,7.0,West,5.8,-,N/A,,Clear,260,2013-01-20 22:55:00
3:15 PM,51.8,42.8,71,30.20,4.0,West,3.5,-,N/A,,Clear,270,2013-01-20 23:15:00
3:35 PM,51.8,42.8,71,30.19,5.0,West,4.6,-,N/A,,Clear,270,2013-01-20 23:35:00
3:55 PM,51.8,42.8,71,30.19,8.0,NW,5.8,-,N/A,,Clear,320,2013-01-20 23:55:00
4:15 PM,48.2,42.8,82,30.19,8.0,NW,4.6,-,N/A,,Clear,320,2013-01-21 00:15:00
4:35 PM,46.4,42.8,87,30.19,5.0,NW,4.6,-,N/A,,Clear,320,2013-01-21 00:35:00
4:55 PM,46.4,42.8,87,30.19,5.0,NNW,3.5,-,N/A,,Clear,330,2013-01-21 00:55:00
5:15 PM,46.4,42.8,87,30.20,6.0,NW,3.5,-,N/A,,Clear,310,2013-01-21 01:15:00
5:35 PM,46.4,42.8,87,30.19,5.0,Calm,Calm,-,N/A,,Clear,0,2013-01-21 01:35:00
5:55 PM,44.6,42.8,93,30.20,7.0,Calm,Calm,-,N/A,,Clear,0,2013-01-21 01:55:00
6:15 PM,44.6,44.6,100,30.20,7.0,Calm,Calm,-,N/A,,Clear,0,2013-01-21 02:15:00
6:35 PM,42.8,41.0,93,30.20,5.0,SSE,3.5,-,N/A,,Clear,150,2013-01-21 02:35:00
6:55 PM,39.2,37.4,93,30.21,5.0,SSE,4.6,-,N/A,,Clear,160,2013-01-21 02:55:00
7:15 PM,37.4,37.4,100,30.21,4.0,SSE,4.6,-,N/A,,Clear,160,2013-01-21 03:15:00
7:35 PM,37.4,35.6,93,30.21,4.0,SSE,4.6,-,N/A,,Clear,150,2013-01-21 03:35:00
7:55 PM,37.4,37.4,100,30.21,4.0,SE,4.6,-,N/A,,Clear,140,2013-01-21 03:55:00
8:15 PM,37.4,35.6,93,30.20,4.0,Calm,Calm,-,N/A,,Clear,0,2013-01-21 04:15:00
8:35 PM,35.6,35.6,100,30.20,4.0,SE,5.8,-,N/A,,Clear,140,2013-01-21 04:35:00
8:55 PM,37.4,35.6,93,30.20,5.0,SE,5.8,-,N/A,,Clear,130,2013-01-21 04:55:00
9:15 PM,37.4,37.4,100,30.20,5.0,ESE,5.8,-,N/A,,Clear,120,2013-01-21 05:15:00
9:35 PM,37.4,35.6,93,30.20,5.0,ESE,5.8,-,N/A,,Clear,120,2013-01-21 05:35:00
9:55 PM,37.4,37.4,100,30.20,10.0,ESE,4.6,-,N/A,,Clear,110,2013-01-21 05:55:00
10:15 PM,37.4,37.4,100,30.20,10.0,ESE,5.8,-,N/A,,Clear,120,2013-01-21 06:15:00
10:35 PM,37.4,35.6,93,30.21,10.0,SE,5.8,-,N/A,,Clear,130,2013-01-21 06:35:00
10:55 PM,37.4,35.6,93,30.22,10.0,ESE,5.8,-,N/A,,Clear,110,2013-01-21 06:55:00
11:15 PM,37.4,37.4,100,30.21,10.0,ESE,5.8,-,N/A,,Clear,120,2013-01-21 07:15:00
11:35 PM,35.6,33.8,93,30.22,10.0,SE,6.9,-,N/A,,Clear,130,2013-01-21 07:35:00
11:55 PM,35.6,33.8,93,30.22,10.0,ESE,8.1,-,N/A,,Clear,120,2013-01-21 07:55:00